Retour au catalogue

STARLINK-35995

ActifCommunicationsVLEO
NORAD 66817·PAYLOAD·🇺🇸 United States

Lancé Dec 1, 2025 depuis Cape Canaveral Space Force Station

Loading…

Prochains Passages (prochaines 24 heures)

TLE

FraisSource: CelesTrak SupGP

Époque: Sep 14, 2026, 23:15 UTC

1 66817C 25278AC  26257.96923611  .00017535  00000+0  63521-3 0  2578
2 66817  43.0006 125.3381 0001382 275.7461 236.2530 15.27564947    14

Suivez STARLINK-35995 en temps réel avec AllMySat

Download on the App Store